Time,TemperatureF,DewpointF,PressureIn,WindDirection,WindDirectionDegrees,WindSpeedMPH,WindSpeedGustMPH,Humidity,HourlyPrecipIn,Conditions,Clouds,dailyrainin,SoftwareType,DateUTC
2013-05-07 00:04:00,60.0,59.4,29.93,NNE,22,3.0,9.0,98,0.00,,,0.00,Weather View 32 v70,2013-05-07 04:04:00,
2013-05-07 00:09:00,60.0,59.7,29.93,NE,45,1.0,9.0,99,0.00,,,0.00,Weather View 32 v70,2013-05-07 04:09:00,
2013-05-07 00:14:00,60.0,59.7,29.93,North,360,2.0,9.0,99,0.00,,,0.00,Weather View 32 v70,2013-05-07 04:14:00,
2013-05-07 00:19:00,60.0,59.7,29.93,NE,45,3.0,9.0,99,0.00,,,0.00,Weather View 32 v70,2013-05-07 04:19:00,
2013-05-07 00:24:00,60.0,59.7,29.93,North,360,2.0,9.0,99,0.00,,,0.00,Weather View 32 v70,2013-05-07 04:24:00,
2013-05-07 00:29:00,59.0,59.0,29.93,North,360,3.0,9.0,100,0.00,,,0.00,Weather View 32 v70,2013-05-07 04:29:00,
2013-05-07 00:34:00,59.0,59.0,29.93,NNE,22,2.0,9.0,100,0.00,,,0.00,Weather View 32 v70,2013-05-07 04:34:00,
2013-05-07 00:39:00,59.0,59.0,29.93,NNE,22,3.0,7.0,100,0.00,,,0.00,Weather View 32 v70,2013-05-07 04:39:00,
2013-05-07 00:44:00,59.0,59.0,29.93,North,360,4.0,7.0,100,0.00,,,0.00,Weather View 32 v70,2013-05-07 04:44:00,
2013-05-07 00:49:00,59.0,59.0,29.93,North,360,3.0,7.0,100,0.00,,,0.00,Weather View 32 v70,2013-05-07 04:49:00,
2013-05-07 00:59:00,59.0,59.0,29.93,North,360,5.0,7.0,100,0.00,,,0.00,Weather View 32 v70,2013-05-07 04:59:00,
2013-05-07 01:04:00,59.0,59.0,29.93,North,360,3.0,7.0,100,0.00,,,0.00,Weather View 32 v70,2013-05-07 05:04:00,
2013-05-07 01:09:00,59.0,59.0,29.93,North,360,5.0,7.0,100,0.00,,,0.00,Weather View 32 v70,2013-05-07 05:09:00,
2013-05-07 01:14:00,59.0,59.0,29.93,North,360,4.0,7.0,100,0.00,,,0.00,Weather View 32 v70,2013-05-07 05:14:00,
2013-05-07 01:24:00,59.0,59.0,29.93,North,360,4.0,7.0,100,0.00,,,0.00,Weather View 32 v70,2013-05-07 05:24:00,
2013-05-07 01:29:00,59.0,59.0,29.93,North,360,4.0,7.0,100,0.00,,,0.00,Weather View 32 v70,2013-05-07 05:29:00,
2013-05-07 01:34:00,59.0,59.0,29.93,NNE,22,4.0,7.0,100,0.00,,,0.00,Weather View 32 v70,2013-05-07 05:34:00,
2013-05-07 01:39:00,59.0,59.0,29.93,North,360,2.0,7.0,100,0.00,,,0.00,Weather View 32 v70,2013-05-07 05:39:00,
2013-05-07 01:44:00,59.0,59.0,29.93,North,360,3.0,7.0,100,0.00,,,0.00,Weather View 32 v70,2013-05-07 05:44:00,
2013-05-07 01:49:00,59.0,59.0,29.93,NNE,22,2.0,7.0,100,0.00,,,0.00,Weather View 32 v70,2013-05-07 05:49:00,
2013-05-07 01:54:00,59.0,59.0,29.93,NNE,22,3.0,7.0,100,0.00,,,0.00,Weather View 32 v70,2013-05-07 05:54:00,
2013-05-07 02:04:00,59.0,59.0,29.92,NNE,22,2.0,7.0,100,0.00,,,0.00,Weather View 32 v70,2013-05-07 06:04:00,
2013-05-07 02:09:00,59.0,59.0,29.92,NNE,22,3.0,7.0,100,0.00,,,0.00,Weather View 32 v70,2013-05-07 06:09:00,
2013-05-07 02:14:00,59.0,59.0,29.92,North,360,3.0,7.0,100,0.00,,,0.00,Weather View 32 v70,2013-05-07 06:14:00,
2013-05-07 02:19:00,59.0,59.0,29.92,North,360,2.0,6.0,100,0.00,,,0.00,Weather View 32 v70,2013-05-07 06:19:00,
2013-05-07 02:24:00,59.0,59.0,29.92,NNE,22,3.0,6.0,100,0.00,,,0.00,Weather View 32 v70,2013-05-07 06:24:00,
2013-05-07 02:29:00,59.0,59.0,29.92,NNE,22,3.0,6.0,100,0.00,,,0.00,Weather View 32 v70,2013-05-07 06:29:00,
2013-05-07 02:34:00,59.0,59.0,29.92,NNE,22,2.0,6.0,100,0.00,,,0.00,Weather View 32 v70,2013-05-07 06:34:00,
2013-05-07 02:39:00,59.0,59.0,29.91,North,360,3.0,7.0,100,0.00,,,0.00,Weather View 32 v70,2013-05-07 06:39:00,
2013-05-07 02:44:00,59.0,59.0,29.91,North,360,1.0,7.0,100,0.00,,,0.00,Weather View 32 v70,2013-05-07 06:44:00,
2013-05-07 02:49:00,59.0,59.0,29.91,NE,45,1.0,7.0,100,0.00,,,0.00,Weather View 32 v70,2013-05-07 06:49:00,
2013-05-07 02:59:00,59.0,59.0,29.91,North,360,4.0,7.0,100,0.00,,,0.00,Weather View 32 v70,2013-05-07 06:59:00,
2013-05-07 03:04:00,59.0,59.0,29.91,North,360,5.0,7.0,100,0.00,,,0.00,Weather View 32 v70,2013-05-07 07:04:00,
2013-05-07 03:09:00,59.0,59.0,29.91,North,360,3.0,7.0,100,0.00,,,0.00,Weather View 32 v70,2013-05-07 07:09:00,
2013-05-07 03:19:00,58.0,58.0,29.91,NW,315,3.0,7.0,100,0.00,,,0.00,Weather View 32 v70,2013-05-07 07:19:00,
2013-05-07 03:24:00,58.0,58.0,29.91,NW,315,3.0,7.0,100,0.00,,,0.00,Weather View 32 v70,2013-05-07 07:24:00,
2013-05-07 03:34:00,58.0,58.0,29.91,North,360,4.0,7.0,100,0.00,,,0.00,Weather View 32 v70,2013-05-07 07:34:00,
2013-05-07 03:39:00,58.0,58.0,29.91,North,360,4.0,7.0,100,0.00,,,0.00,Weather View 32 v70,2013-05-07 07:39:00,
2013-05-07 03:44:00,58.0,58.0,29.91,North,360,2.0,7.0,100,0.00,,,0.00,Weather View 32 v70,2013-05-07 07:44:00,
2013-05-07 03:49:00,58.0,58.0,29.91,North,360,4.0,7.0,100,0.00,,,0.00,Weather View 32 v70,2013-05-07 07:49:00,
2013-05-07 03:59:00,58.0,58.0,29.91,North,360,4.0,7.0,100,0.00,,,0.00,Weather View 32 v70,2013-05-07 07:59:00,
2013-05-07 04:04:00,58.0,58.0,29.91,North,360,4.0,7.0,100,0.00,,,0.00,Weather View 32 v70,2013-05-07 08:04:00,
2013-05-07 04:09:00,58.0,58.0,29.91,NNW,337,2.0,7.0,100,0.00,,,0.00,Weather View 32 v70,2013-05-07 08:09:00,
2013-05-07 04:14:00,58.0,58.0,29.91,North,360,6.0,7.0,100,0.00,,,0.00,Weather View 32 v70,2013-05-07 08:14:00,
2013-05-07 04:20:00,58.0,58.0,29.92,North,360,5.0,7.0,100,0.00,,,0.00,Weather View 32 v70,2013-05-07 08:20:00,
2013-05-07 04:29:00,58.0,58.0,29.92,North,360,3.0,7.0,100,0.00,,,0.00,Weather View 32 v70,2013-05-07 08:29:00,
2013-05-07 04:34:00,58.0,58.0,29.92,North,360,6.0,7.0,100,0.00,,,0.00,Weather View 32 v70,2013-05-07 08:34:00,
2013-05-07 04:44:00,58.0,58.0,29.92,North,360,2.0,7.0,100,0.00,,,0.00,Weather View 32 v70,2013-05-07 08:44:00,
2013-05-07 04:49:00,58.0,58.0,29.92,North,360,4.0,7.0,100,0.00,,,0.00,Weather View 32 v70,2013-05-07 08:49:00,
2013-05-07 04:54:00,58.0,58.0,29.92,North,360,5.0,7.0,100,0.00,,,0.00,Weather View 32 v70,2013-05-07 08:54:00,
2013-05-07 04:59:00,58.0,58.0,29.93,North,360,4.0,8.0,100,0.00,,,0.00,Weather View 32 v70,2013-05-07 08:59:00,
2013-05-07 05:04:00,58.0,58.0,29.93,NE,45,8.0,8.0,100,0.00,,,0.00,Weather View 32 v70,2013-05-07 09:04:00,
2013-05-07 05:14:00,58.0,58.0,29.93,North,360,2.0,8.0,100,0.00,,,0.00,Weather View 32 v70,2013-05-07 09:14:00,
2013-05-07 05:19:00,58.0,58.0,29.93,NNE,22,1.0,8.0,100,0.00,,,0.00,Weather View 32 v70,2013-05-07 09:19:00,
2013-05-07 05:24:00,58.0,58.0,29.93,North,360,2.0,8.0,100,0.00,,,0.00,Weather View 32 v70,2013-05-07 09:24:00,
2013-05-07 05:29:00,58.0,58.0,29.93,North,360,5.0,8.0,100,0.00,,,0.00,Weather View 32 v70,2013-05-07 09:29:00,
2013-05-07 05:35:00,58.0,58.0,29.93,North,360,5.0,8.0,100,0.00,,,0.00,Weather View 32 v70,2013-05-07 09:35:00,
2013-05-07 05:44:00,58.0,58.0,29.94,NE,45,1.0,8.0,100,0.00,,,0.00,Weather View 32 v70,2013-05-07 09:44:00,
2013-05-07 05:49:00,58.0,58.0,29.94,North,360,5.0,8.0,100,0.00,,,0.00,Weather View 32 v70,2013-05-07 09:49:00,
2013-05-07 05:54:00,58.0,58.0,29.94,North,360,4.0,8.0,100,0.00,,,0.00,Weather View 32 v70,2013-05-07 09:54:00,
2013-05-07 06:04:00,58.0,58.0,29.94,NNE,22,5.0,8.0,100,0.00,,,0.00,Weather View 32 v70,2013-05-07 10:04:00,
2013-05-07 06:09:00,58.0,58.0,29.94,North,360,5.0,8.0,100,0.00,,,0.00,Weather View 32 v70,2013-05-07 10:09:00,
2013-05-07 06:14:00,58.0,58.0,29.94,NE,45,6.0,8.0,100,0.00,,,0.00,Weather View 32 v70,2013-05-07 10:14:00,
2013-05-07 06:19:00,58.0,58.0,29.95,NNE,22,3.0,8.0,100,0.00,,,0.00,Weather View 32 v70,2013-05-07 10:19:00,
2013-05-07 06:24:00,58.0,58.0,29.95,NNE,22,6.0,8.0,100,0.00,,,0.00,Weather View 32 v70,2013-05-07 10:24:00,
2013-05-07 06:29:00,58.0,58.0,29.95,North,360,6.0,8.0,100,0.00,,,0.00,Weather View 32 v70,2013-05-07 10:29:00,
2013-05-07 06:34:00,58.0,58.0,29.95,North,360,4.0,7.0,100,0.00,,,0.00,Weather View 32 v70,2013-05-07 10:34:00,
2013-05-07 06:39:00,58.0,58.0,29.95,North,360,5.0,7.0,100,0.00,,,0.00,Weather View 32 v70,2013-05-07 10:39:00,
2013-05-07 06:49:00,58.0,58.0,29.95,North,360,5.0,7.0,100,0.00,,,0.00,Weather View 32 v70,2013-05-07 10:49:00,
2013-05-07 06:54:00,58.0,58.0,29.95,North,360,2.0,7.0,100,0.00,,,0.00,Weather View 32 v70,2013-05-07 10:54:00,
2013-05-07 06:59:00,58.0,58.0,29.95,North,360,5.0,7.0,100,0.00,,,0.00,Weather View 32 v70,2013-05-07 10:59:00,
2013-05-07 07:09:00,58.0,58.0,29.95,North,360,6.0,7.0,100,0.00,,,0.00,Weather View 32 v70,2013-05-07 11:09:00,
2013-05-07 07:14:00,58.0,58.0,29.95,North,360,5.0,7.0,100,0.00,,,0.00,Weather View 32 v70,2013-05-07 11:14:00,
2013-05-07 07:19:00,58.0,58.0,29.95,North,360,4.0,7.0,100,0.00,,,0.00,Weather View 32 v70,2013-05-07 11:19:00,
2013-05-07 07:24:00,58.0,58.0,29.95,North,360,5.0,7.0,100,0.00,,,0.00,Weather View 32 v70,2013-05-07 11:24:00,
2013-05-07 07:29:00,58.0,58.0,29.96,North,360,6.0,7.0,100,0.00,,,0.00,Weather View 32 v70,2013-05-07 11:29:00,
2013-05-07 07:36:00,58.0,58.0,29.96,North,360,7.0,7.0,100,0.00,,,0.00,Weather View 32 v70,2013-05-07 11:36:00,
2013-05-07 07:44:00,58.0,58.0,29.96,North,360,6.0,8.0,100,0.00,,,0.00,Weather View 32 v70,2013-05-07 11:44:00,
2013-05-07 07:49:00,58.0,58.0,29.96,North,360,4.0,8.0,100,0.00,,,0.00,Weather View 32 v70,2013-05-07 11:49:00,
2013-05-07 07:54:00,58.0,58.0,29.96,North,360,6.0,8.0,100,0.00,,,0.00,Weather View 32 v70,2013-05-07 11:54:00,
2013-05-07 08:04:00,59.0,59.0,29.97,NE,45,5.0,8.0,100,0.00,,,0.00,Weather View 32 v70,2013-05-07 12:04:00,
2013-05-07 08:09:00,59.0,59.0,29.97,North,360,4.0,8.0,100,0.00,,,0.00,Weather View 32 v70,2013-05-07 12:09:00,
2013-05-07 08:14:00,59.0,59.0,29.97,NNE,22,7.0,8.0,100,0.00,,,0.00,Weather View 32 v70,2013-05-07 12:14:00,
2013-05-07 08:24:00,59.0,59.0,29.97,NNE,22,1.0,8.0,100,0.00,,,0.00,Weather View 32 v70,2013-05-07 12:24:00,
2013-05-07 08:29:00,60.0,60.0,29.98,North,360,6.0,8.0,100,0.00,,,0.00,Weather View 32 v70,2013-05-07 12:29:00,
2013-05-07 08:34:00,60.0,60.0,29.98,North,360,5.0,8.0,100,0.00,,,0.00,Weather View 32 v70,2013-05-07 12:34:00,
2013-05-07 08:44:00,62.0,62.0,29.98,NNE,22,7.0,9.0,100,0.00,,,0.00,Weather View 32 v70,2013-05-07 12:44:00,
2013-05-07 08:49:00,63.0,62.7,29.98,North,360,7.0,9.0,99,0.00,,,0.00,Weather View 32 v70,2013-05-07 12:49:00,
2013-05-07 08:59:00,63.0,62.7,29.99,North,360,3.0,9.0,99,0.00,,,0.00,Weather View 32 v70,2013-05-07 12:59:00,
2013-05-07 09:04:00,63.0,63.0,29.98,NNE,22,2.0,9.0,100,0.00,,,0.00,Weather View 32 v70,2013-05-07 13:04:00,
2013-05-07 09:09:00,64.0,63.1,29.98,North,360,6.0,9.0,97,0.00,,,0.00,Weather View 32 v70,2013-05-07 13:09:00,
2013-05-07 09:19:00,65.0,62.0,29.99,NNW,337,1.0,10.0,90,0.00,,,0.00,Weather View 32 v70,2013-05-07 13:19:00,
2013-05-07 09:24:00,66.0,62.3,29.99,NNE,22,5.0,10.0,88,0.00,,,0.00,Weather View 32 v70,2013-05-07 13:24:00,
2013-05-07 09:34:00,65.0,61.7,30.00,NE,45,1.0,10.0,89,0.00,,,0.00,Weather View 32 v70,2013-05-07 13:34:00,
2013-05-07 09:44:00,66.0,62.3,30.00,NNE,22,2.0,10.0,88,0.00,,,0.00,Weather View 32 v70,2013-05-07 13:44:00,
2013-05-07 09:49:00,66.0,61.3,30.00,SE,135,1.0,10.0,85,0.00,,,0.00,Weather View 32 v70,2013-05-07 13:49:00,
2013-05-07 09:59:00,67.0,61.6,30.00,ENE,67,1.0,10.0,83,0.00,,,0.00,Weather View 32 v70,2013-05-07 13:59:00,
2013-05-07 10:09:00,68.0,62.3,30.00,NW,315,5.0,10.0,82,0.00,,,0.00,Weather View 32 v70,2013-05-07 14:09:00,
2013-05-07 10:19:00,69.0,60.7,30.00,North,360,6.0,10.0,75,0.00,,,0.00,Weather View 32 v70,2013-05-07 14:19:00,
2013-05-07 10:24:00,70.0,60.9,30.00,North,360,6.0,10.0,73,0.00,,,0.00,Weather View 32 v70,2013-05-07 14:24:00,
2013-05-07 10:29:00,70.0,60.9,30.00,North,360,2.0,10.0,73,0.00,,,0.00,Weather View 32 v70,2013-05-07 14:29:00,
2013-05-07 10:38:00,71.0,60.3,30.00,North,360,4.0,10.0,69,0.00,,,0.00,Weather View 32 v70,2013-05-07 14:38:00,
2013-05-07 10:44:00,72.0,60.0,30.00,NE,45,3.0,10.0,66,0.00,,,0.00,Weather View 32 v70,2013-05-07 14:44:00,
2013-05-07 10:49:00,72.0,59.6,30.01,NW,315,6.0,10.0,65,0.00,,,0.00,Weather View 32 v70,2013-05-07 14:49:00,
2013-05-07 10:54:00,71.0,59.0,30.01,North,360,2.0,13.0,66,0.00,,,0.00,Weather View 32 v70,2013-05-07 14:54:00,
2013-05-07 10:59:00,71.0,59.9,30.01,North,360,5.0,13.0,68,0.00,,,0.00,Weather View 32 v70,2013-05-07 14:59:00,
2013-05-07 11:09:00,72.0,60.4,30.01,North,360,5.0,13.0,67,0.00,,,0.00,Weather View 32 v70,2013-05-07 15:09:00,
2013-05-07 11:14:00,72.0,60.0,30.01,North,360,3.0,13.0,66,0.00,,,0.00,Weather View 32 v70,2013-05-07 15:14:00,
2013-05-07 11:24:00,71.0,59.0,30.01,NW,315,2.0,13.0,66,0.00,,,0.00,Weather View 32 v70,2013-05-07 15:24:00,
2013-05-07 11:34:00,70.0,60.9,30.00,NNE,22,4.0,13.0,73,0.00,,,0.00,Weather View 32 v70,2013-05-07 15:34:00,
2013-05-07 11:39:00,70.0,60.1,30.00,North,360,4.0,13.0,71,0.00,,,0.00,Weather View 32 v70,2013-05-07 15:39:00,
2013-05-07 11:49:00,72.0,60.0,30.01,NE,45,2.0,13.0,66,0.00,,,0.00,Weather View 32 v70,2013-05-07 15:49:00,
2013-05-07 11:54:00,72.0,59.1,30.01,North,360,4.0,10.0,64,0.00,,,0.00,Weather View 32 v70,2013-05-07 15:54:00,
2013-05-07 11:59:00,73.0,60.5,30.01,North,360,7.0,10.0,65,0.00,,,0.00,Weather View 32 v70,2013-05-07 15:59:00,
2013-05-07 12:09:00,74.0,59.2,30.01,North,360,0.0,10.0,60,0.00,,,0.00,Weather View 32 v70,2013-05-07 16:09:00,
2013-05-07 12:14:00,73.0,57.8,30.01,NNE,22,7.0,10.0,59,0.00,,,0.00,Weather View 32 v70,2013-05-07 16:14:00,
2013-05-07 12:24:00,73.0,58.7,30.01,NE,45,3.0,10.0,61,0.00,,,0.00,Weather View 32 v70,2013-05-07 16:24:00,
2013-05-07 12:34:00,73.0,57.8,30.01,North,360,8.0,10.0,59,0.00,,,0.00,Weather View 32 v70,2013-05-07 16:34:00,
2013-05-07 12:39:00,73.0,57.3,30.01,NNE,22,2.0,10.0,58,0.00,,,0.00,Weather View 32 v70,2013-05-07 16:39:00,
2013-05-07 12:44:00,73.0,57.3,30.01,North,360,6.0,10.0,58,0.00,,,0.00,Weather View 32 v70,2013-05-07 16:44:00,
2013-05-07 12:54:00,74.0,58.2,30.01,SE,135,6.0,10.0,58,0.00,,,0.00,Weather View 32 v70,2013-05-07 16:54:00,
2013-05-07 13:04:00,74.0,56.8,30.01,ESE,112,3.0,10.0,55,0.00,,,0.00,Weather View 32 v70,2013-05-07 17:04:00,
2013-05-07 13:09:00,75.0,58.2,30.01,NNE,22,9.0,10.0,56,0.00,,,0.00,Weather View 32 v70,2013-05-07 17:09:00,
2013-05-07 13:19:00,74.0,56.8,30.01,NNE,22,5.0,9.0,55,0.00,,,0.00,Weather View 32 v70,2013-05-07 17:19:00,
2013-05-07 13:29:00,73.0,57.8,30.00,North,360,4.0,9.0,59,0.00,,,0.00,Weather View 32 v70,2013-05-07 17:29:00,
2013-05-07 13:34:00,73.0,58.7,30.00,NNE,22,6.0,9.0,61,0.00,,,0.00,Weather View 32 v70,2013-05-07 17:34:00,
2013-05-07 13:39:00,73.0,57.8,30.00,North,360,3.0,9.0,59,0.00,,,0.00,Weather View 32 v70,2013-05-07 17:39:00,
2013-05-07 13:49:00,73.0,57.3,30.00,NE,45,3.0,10.0,58,0.00,,,0.00,Weather View 32 v70,2013-05-07 17:49:00,
2013-05-07 13:54:00,72.0,57.3,30.00,NNW,337,3.0,10.0,60,0.00,,,0.00,Weather View 32 v70,2013-05-07 17:54:00,
2013-05-07 13:59:00,72.0,57.3,30.00,East,90,3.0,10.0,60,0.00,,,0.00,Weather View 32 v70,2013-05-07 17:59:00,
2013-05-07 14:09:00,72.0,57.3,30.00,NNE,22,5.0,10.0,60,0.00,,,0.00,Weather View 32 v70,2013-05-07 18:09:00,
2013-05-07 14:14:00,72.0,57.3,30.00,North,360,4.0,10.0,60,0.00,,,0.00,Weather View 32 v70,2013-05-07 18:14:00,
2013-05-07 14:24:00,71.0,56.4,30.00,ESE,112,3.0,10.0,60,0.00,,,0.00,Weather View 32 v70,2013-05-07 18:24:00,
2013-05-07 14:29:00,71.0,56.8,30.00,North,360,8.0,10.0,61,0.00,,,0.00,Weather View 32 v70,2013-05-07 18:29:00,
2013-05-07 14:40:00,72.0,57.3,29.99,North,360,4.0,10.0,60,0.00,,,0.00,Weather View 32 v70,2013-05-07 18:40:00,
2013-05-07 14:49:00,74.0,57.3,29.99,ENE,67,4.0,10.0,56,0.00,,,0.00,Weather View 32 v70,2013-05-07 18:49:00,
2013-05-07 14:54:00,74.0,57.3,29.99,NE,45,3.0,10.0,56,0.00,,,0.00,Weather View 32 v70,2013-05-07 18:54:00,
2013-05-07 14:59:00,74.0,57.3,30.00,NNE,22,7.0,10.0,56,0.00,,,0.00,Weather View 32 v70,2013-05-07 18:59:00,
2013-05-07 15:09:00,74.0,57.3,29.99,East,90,3.0,10.0,56,0.00,,,0.00,Weather View 32 v70,2013-05-07 19:09:00,
2013-05-07 15:19:00,74.0,58.2,29.99,North,360,1.0,10.0,58,0.00,,,0.00,Weather View 32 v70,2013-05-07 19:19:00,
2013-05-07 15:24:00,74.0,56.8,29.99,NE,45,1.0,9.0,55,0.00,,,0.00,Weather View 32 v70,2013-05-07 19:24:00,
2013-05-07 15:29:00,74.0,57.3,29.99,East,90,3.0,9.0,56,0.00,,,0.00,Weather View 32 v70,2013-05-07 19:29:00,
2013-05-07 15:39:00,75.0,58.7,29.99,NNW,337,3.0,9.0,57,0.00,,,0.00,Weather View 32 v70,2013-05-07 19:39:00,
2013-05-07 15:44:00,75.0,57.7,29.99,NE,45,2.0,9.0,55,0.00,,,0.00,Weather View 32 v70,2013-05-07 19:44:00,
2013-05-07 15:54:00,76.0,57.6,29.99,NW,315,7.0,9.0,53,0.00,,,0.00,Weather View 32 v70,2013-05-07 19:54:00,
2013-05-07 15:59:00,75.0,55.0,29.99,SSW,202,1.0,9.0,50,0.00,,,0.00,Weather View 32 v70,2013-05-07 19:59:00,
2013-05-07 16:09:00,75.0,56.7,29.99,North,360,6.0,12.0,53,0.00,,,0.00,Weather View 32 v70,2013-05-07 20:09:00,
2013-05-07 16:14:00,74.0,56.8,29.98,NNE,22,5.0,12.0,55,0.00,,,0.00,Weather View 32 v70,2013-05-07 20:14:00,
2013-05-07 16:24:00,74.0,56.8,29.98,East,90,1.0,12.0,55,0.00,,,0.00,Weather View 32 v70,2013-05-07 20:24:00,
2013-05-07 16:29:00,73.0,54.8,29.98,North,360,6.0,12.0,53,0.00,,,0.00,Weather View 32 v70,2013-05-07 20:29:00,
2013-05-07 16:39:00,72.0,55.4,29.98,North,360,9.0,12.0,56,0.00,,,0.00,Weather View 32 v70,2013-05-07 20:39:00,
2013-05-07 16:44:00,71.0,54.0,29.98,East,90,6.0,12.0,55,0.00,,,0.00,Weather View 32 v70,2013-05-07 20:44:00,
2013-05-07 16:54:00,71.0,55.0,29.97,East,90,1.0,12.0,57,0.00,,,0.00,Weather View 32 v70,2013-05-07 20:54:00,
2013-05-07 16:59:00,71.0,56.4,29.97,North,360,8.0,12.0,60,0.00,,,0.00,Weather View 32 v70,2013-05-07 20:59:00,
2013-05-07 17:09:00,71.0,56.4,29.97,North,360,6.0,12.0,60,0.00,,,0.00,Weather View 32 v70,2013-05-07 21:09:00,
2013-05-07 17:19:00,72.0,57.3,29.97,ENE,67,2.0,12.0,60,0.00,,,0.00,Weather View 32 v70,2013-05-07 21:19:00,
2013-05-07 17:24:00,72.0,56.4,29.97,North,360,6.0,12.0,58,0.00,,,0.00,Weather View 32 v70,2013-05-07 21:24:00,
2013-05-07 17:29:00,72.0,56.8,29.97,North,360,6.0,12.0,59,0.00,,,0.00,Weather View 32 v70,2013-05-07 21:29:00,
2013-05-07 17:39:00,72.0,57.3,29.97,ENE,67,2.0,11.0,60,0.00,,,0.00,Weather View 32 v70,2013-05-07 21:39:00,
2013-05-07 17:44:00,72.0,56.4,29.97,NE,45,2.0,9.0,58,0.00,,,0.00,Weather View 32 v70,2013-05-07 21:44:00,
2013-05-07 17:54:00,71.0,56.4,29.97,NE,45,6.0,9.0,60,0.00,,,0.00,Weather View 32 v70,2013-05-07 21:54:00,
2013-05-07 18:04:00,71.0,56.4,29.97,SSE,157,1.0,9.0,60,0.00,,,0.00,Weather View 32 v70,2013-05-07 22:04:00,
2013-05-07 18:14:00,70.0,55.9,29.97,East,90,0.0,9.0,61,0.00,,,0.00,Weather View 32 v70,2013-05-07 22:14:00,
2013-05-07 18:19:00,70.0,56.3,29.97,NE,45,2.0,9.0,62,0.00,,,0.00,Weather View 32 v70,2013-05-07 22:19:00,
2013-05-07 18:24:00,70.0,55.9,29.97,NNE,22,3.0,9.0,61,0.00,,,0.00,Weather View 32 v70,2013-05-07 22:24:00,
2013-05-07 18:34:00,70.0,56.8,29.97,NE,45,0.0,9.0,63,0.00,,,0.00,Weather View 32 v70,2013-05-07 22:34:00,
2013-05-07 18:39:00,70.0,57.2,29.97,NE,45,0.0,9.0,64,0.00,,,0.00,Weather View 32 v70,2013-05-07 22:39:00,
2013-05-07 18:44:00,71.0,57.3,29.97,NW,315,2.0,9.0,62,0.00,,,0.00,Weather View 32 v70,2013-05-07 22:44:00,
2013-05-07 18:49:00,71.0,57.3,29.96,North,360,2.0,9.0,62,0.00,,,0.00,Weather View 32 v70,2013-05-07 22:49:00,
2013-05-07 18:54:00,71.0,56.4,29.96,NE,45,2.0,9.0,60,0.00,,,0.00,Weather View 32 v70,2013-05-07 22:54:00,
2013-05-07 19:04:00,72.0,56.4,29.96,NE,45,2.0,7.0,58,0.00,,,0.00,Weather View 32 v70,2013-05-07 23:04:00,
2013-05-07 19:09:00,72.0,57.8,29.96,NNE,22,3.0,7.0,61,0.00,,,0.00,Weather View 32 v70,2013-05-07 23:09:00,
2013-05-07 19:19:00,72.0,56.4,29.96,NNW,337,2.0,7.0,58,0.00,,,0.00,Weather View 32 v70,2013-05-07 23:19:00,
2013-05-07 19:24:00,72.0,56.8,29.96,North,360,1.0,7.0,59,0.00,,,0.00,Weather View 32 v70,2013-05-07 23:24:00,
2013-05-07 19:29:00,71.0,56.8,29.96,North,360,0.0,7.0,61,0.00,,,0.00,Weather View 32 v70,2013-05-07 23:29:00,
2013-05-07 19:39:00,70.0,56.8,29.96,NW,315,0.0,7.0,63,0.00,,,0.00,Weather View 32 v70,2013-05-07 23:39:00,
2013-05-07 19:44:00,69.0,56.7,29.96,NW,315,0.0,7.0,65,0.00,,,0.00,Weather View 32 v70,2013-05-07 23:44:00,
2013-05-07 19:54:00,68.0,57.0,29.95,NW,315,1.0,6.0,68,0.00,,,0.00,Weather View 32 v70,2013-05-07 23:54:00,
2013-05-07 19:59:00,68.0,57.8,29.95,NW,315,0.0,6.0,70,0.00,,,0.00,Weather View 32 v70,2013-05-07 23:59:00,
2013-05-07 20:04:00,68.0,57.4,29.95,NW,315,0.0,6.0,69,0.00,,,0.00,Weather View 32 v70,2013-05-08 00:04:00,
2013-05-07 20:09:00,67.0,56.5,29.95,NW,315,0.0,6.0,69,0.00,,,0.00,Weather View 32 v70,2013-05-08 00:09:00,
2013-05-07 20:14:00,67.0,56.9,29.96,NW,315,0.0,6.0,70,0.00,,,0.00,Weather View 32 v70,2013-05-08 00:14:00,
2013-05-07 20:24:00,66.0,57.4,29.95,NW,315,0.0,5.0,74,0.00,,,0.00,Weather View 32 v70,2013-05-08 00:24:00,
2013-05-07 20:29:00,65.0,56.9,29.95,NW,315,0.0,5.0,75,0.00,,,0.00,Weather View 32 v70,2013-05-08 00:29:00,
2013-05-07 20:39:00,64.0,57.7,29.95,NW,315,0.0,2.0,80,0.00,,,0.00,Weather View 32 v70,2013-05-08 00:39:00,
2013-05-07 20:44:00,64.0,57.7,29.95,NW,315,0.0,2.0,80,0.00,,,0.00,Weather View 32 v70,2013-05-08 00:44:00,
2013-05-07 20:54:00,63.0,57.4,29.95,NW,315,0.0,2.0,82,0.00,,,0.00,Weather View 32 v70,2013-05-08 00:54:00,
2013-05-07 20:59:00,62.0,57.1,29.95,NW,315,0.0,2.0,84,0.00,,,0.00,Weather View 32 v70,2013-05-08 00:59:00,
2013-05-07 21:04:00,62.0,58.4,29.95,NW,315,0.0,0.0,88,0.00,,,0.00,Weather View 32 v70,2013-05-08 01:04:00,
2013-05-07 21:09:00,62.0,59.3,29.95,NW,315,0.0,0.0,91,0.00,,,0.00,Weather View 32 v70,2013-05-08 01:09:00,
2013-05-07 21:19:00,61.0,59.3,29.95,NW,315,0.0,0.0,94,0.00,,,0.00,Weather View 32 v70,2013-05-08 01:19:00,
2013-05-07 21:24:00,61.0,60.1,29.95,NW,315,0.0,0.0,97,0.00,,,0.00,Weather View 32 v70,2013-05-08 01:24:00,
2013-05-07 21:29:00,61.0,60.7,29.95,NW,315,0.0,0.0,99,0.00,,,0.00,Weather View 32 v70,2013-05-08 01:29:00,
2013-05-07 21:34:00,60.0,59.4,29.95,NW,315,0.0,0.0,98,0.00,,,0.00,Weather View 32 v70,2013-05-08 01:34:00,
2013-05-07 21:39:00,60.0,59.7,29.95,NW,315,0.0,0.0,99,0.00,,,0.00,Weather View 32 v70,2013-05-08 01:39:00,
2013-05-07 21:49:00,59.0,59.0,29.96,NW,315,0.0,0.0,100,0.00,,,0.00,Weather View 32 v70,2013-05-08 01:49:00,
2013-05-07 21:54:00,59.0,59.0,29.96,NW,315,0.0,0.0,100,0.00,,,0.00,Weather View 32 v70,2013-05-08 01:54:00,
2013-05-07 21:59:00,59.0,59.0,29.96,NW,315,0.0,0.0,100,0.00,,,0.00,Weather View 32 v70,2013-05-08 01:59:00,
2013-05-07 22:09:00,59.0,59.0,29.96,NW,315,0.0,0.0,100,0.00,,,0.00,Weather View 32 v70,2013-05-08 02:09:00,
2013-05-07 22:14:00,58.0,58.0,29.96,NW,315,0.0,0.0,100,0.00,,,0.00,Weather View 32 v70,2013-05-08 02:14:00,
2013-05-07 22:24:00,58.0,58.0,29.96,NW,315,0.0,0.0,100,0.00,,,0.00,Weather View 32 v70,2013-05-08 02:24:00,
2013-05-07 22:29:00,58.0,58.0,29.96,NW,315,0.0,0.0,100,0.00,,,0.00,Weather View 32 v70,2013-05-08 02:29:00,
2013-05-07 22:34:00,57.0,57.0,29.96,NW,315,0.0,0.0,100,0.00,,,0.00,Weather View 32 v70,2013-05-08 02:34:00,
2013-05-07 22:39:00,57.0,57.0,29.96,NW,315,0.0,0.0,100,0.00,,,0.00,Weather View 32 v70,2013-05-08 02:39:00,
2013-05-07 22:44:00,57.0,57.0,29.96,NW,315,0.0,0.0,100,0.00,,,0.00,Weather View 32 v70,2013-05-08 02:44:00,
2013-05-07 22:54:00,57.0,57.0,29.96,NW,315,0.0,0.0,100,0.00,,,0.00,Weather View 32 v70,2013-05-08 02:54:00,
2013-05-07 22:59:00,57.0,57.0,29.96,NW,315,0.0,0.0,100,0.00,,,0.00,Weather View 32 v70,2013-05-08 02:59:00,
2013-05-07 23:04:00,56.0,56.0,29.96,NW,315,0.0,0.0,100,0.00,,,0.00,Weather View 32 v70,2013-05-08 03:04:00,
2013-05-07 23:09:00,56.0,56.0,29.96,NW,315,0.0,0.0,100,0.00,,,0.00,Weather View 32 v70,2013-05-08 03:09:00,
2013-05-07 23:19:00,56.0,56.0,29.96,NW,315,0.0,0.0,100,0.00,,,0.00,Weather View 32 v70,2013-05-08 03:19:00,
2013-05-07 23:24:00,56.0,56.0,29.96,NW,315,0.0,0.0,100,0.00,,,0.00,Weather View 32 v70,2013-05-08 03:24:00,
2013-05-07 23:34:00,56.0,56.0,29.96,NW,315,0.0,0.0,100,0.00,,,0.00,Weather View 32 v70,2013-05-08 03:34:00,
2013-05-07 23:39:00,56.0,56.0,29.95,NW,315,0.0,0.0,100,0.00,,,0.00,Weather View 32 v70,2013-05-08 03:39:00,
2013-05-07 23:45:00,56.0,56.0,29.95,NW,315,0.0,0.0,100,0.00,,,0.00,Weather View 32 v70,2013-05-08 03:45:00,
2013-05-07 23:54:00,56.0,56.0,29.95,NW,315,0.0,0.0,100,0.00,,,0.00,Weather View 32 v70,2013-05-08 03:54:00,
2013-05-07 23:59:00,57.0,57.0,29.95,NW,315,0.0,0.0,100,0.00,,,0.00,Weather View 32 v70,2013-05-08 03:59:00,